D2913 Weather Reports


Display with metric or nautical units.
time (UTC)temp
F
wind
direction
speed
MPH
gust
MPH
rain 1hr
in
rain 24hr
in
rain mn
in
humidity
%
barometer
mb
20260903072017 65 0 0.0 0.0 0.00 0.00 0.00 89 1022.8
20260903071516 65 0 0.0 0.0 0.00 0.00 0.00 89 1023.0
20260903071017 65 0 0.0 0.0 0.00 0.00 0.00 89 1023.1
20260903070517 64 0 0.0 0.0 0.00 0.00 0.00 90 1023.0
20260903070019 64 0 0.0 0.0 0.00 0.00 0.00 90 1023.2
20260903065517 64 0 0.0 0.0 0.00 0.00 0.00 90 1023.1
20260903065017 63 0 0.0 0.0 0.00 0.00 0.00 90 1023.2
20260903064516 62 0 0.0 0.0 0.00 0.00 0.00 90 1023.0
20260903064018 62 0 0.0 0.0 0.00 0.00 0.00 90 1022.8
20260903062018 58 0 0.0 0.0 0.00 0.00 0.00 84 1021.9
20260903061517 57 0 0.0 0.0 0.00 0.00 0.00 83 1021.8
20260903061019 57 0 0.0 0.0 0.00 0.00 0.00 82 1021.6
20260903060517 56 0 0.0 0.0 0.00 0.00 0.00 80 1021.6
20260903060017 55 0 0.0 0.0 0.00 0.00 0.00 79 1021.4
20260903055518 55 0 0.0 0.0 0.00 0.00 0.00 78 1021.3
20260903055017 54 0 0.0 0.0 0.00 0.00 0.00 78 1021.2
20260903054517 53 0 0.0 0.0 0.00 0.00 0.00 79 1021.1
20260903054032 53 0 0.0 0.0 0.00 0.00 0.00 79 1021.2
20260903053517 53 0 0.0 0.0 0.00 0.00 0.00 80 1021.0
20260903053018 52 0 0.0 0.0 0.00 0.00 0.00 80 1020.9
20260903052517 52 0 0.0 0.0 0.00 0.00 0.00 80 1020.9
20260903052017 52 0 0.0 0.0 0.00 0.00 0.00 81 1020.8
20260903051018 52 0 0.0 0.0 0.00 0.00 0.00 82 1020.8
20260903050517 52 0 0.0 0.0 0.00 0.00 0.00 83 1020.9
20260903043517 53 0 0.0 0.0 0.00 0.00 0.00 83 1020.9
20260903043017 53 0 0.0 0.0 0.00 0.00 0.00 83 1020.8
20260903042017 53 0 0.0 0.0 0.00 0.00 0.00 85 1020.9
20260903041017 54 0 0.0 0.0 0.00 0.00 0.00 85 1020.8
20260903040516 54 0 0.0 0.0 0.00 0.00 0.00 85 1020.7
20260903040017 54 0 0.0 0.0 0.00 0.00 0.00 86 1020.8
20260903035517 54 0 0.0 0.0 0.00 0.00 0.00 86 1020.7
20260903035018 54 0 0.0 0.0 0.00 0.00 0.00 86 1020.7
20260903034517 54 0 0.0 0.0 0.00 0.00 0.00 86 1020.7
20260903033018 55 0 0.0 0.0 0.00 0.00 0.00 86 1020.9
20260903032517 55 0 0.0 0.0 0.00 0.00 0.00 87 1020.9
20260903032032 55 0 0.0 0.0 0.00 0.00 0.00 86 1020.9
20260903031518 55 0 0.0 0.0 0.00 0.00 0.00 86 1021.0
20260903031017 55 0 0.0 0.0 0.00 0.00 0.00 86 1020.9
20260903030535 55 0 0.0 0.0 0.00 0.00 0.00 86 1021.0
20260903025017 56 0 0.0 0.0 0.00 0.00 0.00 86 1021.0
20260903024517 56 0 0.0 0.0 0.00 0.00 0.00 86 1021.2
20260903024017 56 0 0.0 0.0 0.00 0.00 0.00 86 1021.2
20260903023516 56 0 0.0 0.0 0.00 0.00 0.00 86 1021.3
20260903023017 56 0 0.0 0.0 0.00 0.00 0.00 86 1021.3
20260903022516 56 0 0.0 0.0 0.00 0.00 0.00 86 1021.2
20260903022017 56 0 0.0 0.0 0.00 0.00 0.00 86 1021.1
20260903021519 56 0 0.0 0.0 0.00 0.00 0.00 87 1021.1
20260903021039 57 0 0.0 0.0 0.00 0.00 0.00 87 1021.2
20260903020517 57 0 0.0 0.0 0.00 0.00 0.00 87 1021.2
20260903020016 57 0 0.0 0.0 0.00 0.00 0.00 87 1021.3
20260903015517 57 0 0.0 0.0 0.00 0.00 0.00 87 1021.3
20260903015016 57 0 0.0 0.0 0.00 0.00 0.00 87 1021.3
20260903014517 57 0 0.0 0.0 0.00 0.00 0.00 87 1021.3
20260903014017 57 0 0.0 0.0 0.00 0.00 0.00 86 1021.3
20260903013517 57 0 0.0 0.0 0.00 0.00 0.00 86 1021.3
20260903013017 56 0 0.0 0.0 0.00 0.00 0.00 86 1021.3
20260903012517 56 0 0.0 0.0 0.00 0.00 0.00 85 1021.2
20260903012017 56 0 0.0 0.0 0.00 0.00 0.00 85 1021.2
20260903005017 57 0 0.0 0.0 0.00 0.00 0.00 87 1021.3
20260903004516 57 0 0.0 0.0 0.00 0.00 0.00 87 1021.3
20260903003517 57 0 0.0 0.0 0.00 0.00 0.00 88 1021.4
20260903003016 58 0 0.0 0.0 0.00 0.00 0.00 88 1021.5
20260903002517 58 0 0.0 0.0 0.00 0.00 0.00 88 1021.5
20260903002017 58 0 0.0 0.0 0.00 0.00 0.00 88 1021.5
20260903001517 58 0 0.0 0.0 0.00 0.00 0.00 88 1021.4
20260903001020 58 0 0.0 0.0 0.00 0.00 0.00 88 1021.5
20260903000517 58 0 0.0 0.0 0.00 0.00 0.00 88 1021.6
20260903000017 58 0 0.0 0.0 0.00 0.00 0.00 88 1021.6
20260902235517 58 0 0.0 0.0 0.00 0.00 0.00 88 1021.5
20260902234517 58 0 0.0 0.0 0.00 0.00 0.00 88 1021.5
20260902233517 58 0 0.0 0.0 0.00 0.00 0.00 88 1021.5
20260902233017 58 0 0.0 0.0 0.00 0.00 0.00 88 1021.7
20260902232540 58 0 0.0 0.0 0.00 0.00 0.00 88 1021.6
20260902232017 58 0 0.0 0.0 0.00 0.00 0.00 89 1021.7
20260902231517 58 0 0.0 0.0 0.00 0.00 0.00 89 1021.7
20260902230017 59 0 0.0 0.0 0.00 0.00 0.00 89 1021.8
20260902225538 59 0 0.0 0.0 0.00 0.00 0.00 89 1021.8
20260902225018 59 0 0.0 0.0 0.00 0.00 0.00 89 1021.7
20260902224517 59 0 0.0 0.0 0.00 0.00 0.00 89 1021.8
20260902224017 59 0 0.0 0.0 0.00 0.00 0.00 89 1021.7
20260902223516 59 0 0.0 0.0 0.00 0.00 0.00 89 1021.7
20260902223018 59 0 0.0 0.0 0.00 0.00 0.00 89 1021.7
20260902222017 59 0 0.0 0.0 0.00 0.00 0.00 89 1021.9
20260902221517 60 0 0.0 0.0 0.00 0.00 0.00 90 1021.8
20260902221018 60 0 0.0 0.0 0.00 0.00 0.00 90 1021.8
20260902220517 60 0 0.0 0.0 0.00 0.00 0.00 90 1021.7
20260902220017 60 0 0.0 0.0 0.00 0.00 0.00 90 1021.7
20260902215517 60 0 0.0 0.0 0.00 0.00 0.00 90 1021.8
20260902215017 60 0 0.0 0.0 0.00 0.00 0.00 90 1021.7
20260902214517 61 0 0.0 0.0 0.00 0.00 0.00 90 1021.8
20260902214016 61 0 0.0 0.0 0.00 0.00 0.00 90 1021.7
20260902213518 61 0 0.0 0.0 0.00 0.00 0.00 90 1021.8
20260902213018 61 0 0.0 0.0 0.00 0.00 0.00 90 1021.7
20260902212517 61 0 0.0 0.0 0.00 0.00 0.00 90 1021.7
20260902212016 61 0 0.0 0.0 0.00 0.00 0.00 90 1021.7
20260902211518 61 0 0.0 0.0 0.00 0.00 0.00 90 1021.8
20260902210541 62 0 0.0 0.0 0.00 0.00 0.00 90 1021.6
20260902210017 62 0 0.0 0.0 0.00 0.00 0.00 90 1021.7
20260902205517 63 0 0.0 0.0 0.00 0.00 0.00 90 1021.8
20260902205017 63 0 0.0 0.0 0.00 0.00 0.00 89 1021.7
20260902204517 63 0 0.0 0.0 0.00 0.00 0.00 89 1021.7
20260902204017 63 0 0.0 0.0 0.00 0.00 0.00 89 1021.7
20260902203516 63 0 0.0 0.0 0.00 0.00 0.00 89 1021.8
20260902203017 64 0 0.0 0.0 0.00 0.00 0.00 89 1021.8
20260902202516 64 0 0.0 0.0 0.00 0.00 0.00 89 1021.8
20260902202016 64 0 0.0 0.0 0.00 0.00 0.00 89 1021.8
20260902201517 64 0 0.0 0.0 0.00 0.00 0.00 89 1021.8
20260902201017 65 0 0.0 0.0 0.00 0.00 0.00 88 1021.8
20260902200016 65 0 0.0 0.0 0.00 0.00 0.00 87 1021.8
20260902195517 65 0 0.0 0.0 0.00 0.00 0.00 87 1021.8
20260902195017 65 0 0.0 0.0 0.00 0.00 0.00 87 1021.8
20260902194517 65 0 0.0 0.0 0.00 0.00 0.00 87 1021.8
20260902194017 65 0 0.0 0.0 0.00 0.00 0.00 87 1021.8
20260902193516 66 0 0.0 0.0 0.00 0.00 0.00 87 1021.8
20260902193039 66 0 0.0 0.0 0.00 0.00 0.00 86 1021.9
20260902192517 67 0 0.0 0.0 0.00 0.00 0.00 86 1021.9
20260902192017 67 0 0.0 0.0 0.00 0.00 0.00 85 1021.8
20260902191516 67 0 0.0 0.0 0.00 0.00 0.00 84 1021.8
20260902191017 67 0 0.0 0.0 0.00 0.00 0.00 84 1021.8
20260902190516 67 0 0.0 0.0 0.00 0.00 0.00 84 1021.7
20260902190016 67 0 0.0 0.0 0.00 0.00 0.00 84 1021.7
20260902185517 67 0 0.0 0.0 0.00 0.00 0.00 84 1021.6
20260902185017 68 0 0.0 0.0 0.00 0.00 0.00 84 1021.6
20260902184517 68 0 0.0 0.0 0.00 0.00 0.00 83 1021.3
20260902184018 68 0 0.0 0.0 0.00 0.00 0.00 83 1021.4
20260902183518 68 0 0.0 0.0 0.00 0.00 0.00 83 1021.3
20260902183017 68 0 0.0 0.0 0.00 0.00 0.00 83 1021.3
20260902182017 68 0 0.0 0.0 0.00 0.00 0.00 82 1021.3
20260902181517 69 0 0.0 0.0 0.00 0.00 0.00 82 1021.3
20260902181017 69 0 0.0 0.0 0.00 0.00 0.00 82 1021.2
20260902180518 69 0 0.0 0.0 0.00 0.00 0.00 82 1021.3
20260902180017 69 0 0.0 0.0 0.00 0.00 0.00 82 1021.3
20260902175517 69 0 0.0 0.0 0.00 0.00 0.00 82 1021.2
20260902175016 70 0 0.0 0.0 0.00 0.00 0.00 81 1021.3
20260902174517 70 0 0.0 0.0 0.00 0.00 0.00 81 1021.2
20260902174017 70 0 0.0 0.0 0.00 0.00 0.00 81 1021.2
20260902173518 71 0 0.0 0.0 0.00 0.00 0.00 81 1021.3
20260902173016 71 0 0.0 0.0 0.00 0.00 0.00 81 1021.2
20260902172522 71 0 0.0 0.0 0.00 0.00 0.00 80 1021.3
20260902172017 71 0 0.0 0.0 0.00 0.00 0.00 81 1021.3
20260902171517 71 0 0.0 0.0 0.00 0.00 0.00 80 1021.3
20260902171018 72 0 0.0 0.0 0.00 0.00 0.00 80 1021.4
20260902170517 72 0 0.0 0.0 0.00 0.00 0.00 80 1021.4
20260902170017 73 0 0.0 0.0 0.00 0.00 0.00 80 1021.5
20260902165517 73 0 0.0 0.0 0.00 0.00 0.00 79 1021.5
20260902165017 73 0 0.0 0.0 0.00 0.00 0.00 79 1021.5
20260902164516 73 0 0.0 0.0 0.00 0.00 0.00 79 1021.5
20260902164016 73 0 0.0 0.0 0.00 0.00 0.00 78 1021.5
20260902163538 73 0 0.0 0.0 0.00 0.00 0.00 78 1021.5
20260902163017 73 0 0.0 0.0 0.00 0.00 0.00 78 1021.6
20260902162517 74 0 0.0 0.0 0.00 0.00 0.00 77 1021.5
20260902162018 74 0 0.0 0.0 0.00 0.00 0.00 77 1021.5
20260902161017 74 0 0.0 0.0 0.00 0.00 0.00 78 1021.5
20260902160517 74 0 0.0 0.0 0.00 0.00 0.00 78 1021.5
20260902155516 74 0 0.0 0.0 0.00 0.00 0.00 78 1021.5
20260902155017 74 0 0.0 0.0 0.00 0.00 0.00 78 1021.5
20260902154017 74 0 0.0 0.0 0.00 0.00 0.00 78 1021.5
20260902153018 75 0 0.0 0.0 0.00 0.00 0.00 77 1021.5
20260902152517 75 0 0.0 0.0 0.00 0.00 0.00 77 1021.6
20260902152017 75 0 0.0 0.0 0.00 0.00 0.00 77 1021.7
20260902151517 75 0 0.0 0.0 0.00 0.00 0.00 78 1021.6
20260902151017 75 0 0.0 0.0 0.00 0.00 0.00 77 1021.6
20260902150018 75 0 0.0 0.0 0.00 0.00 0.00 77 1021.8
20260902145518 75 0 0.0 0.0 0.00 0.00 0.00 76 1021.6
20260902145017 75 0 0.0 0.0 0.00 0.00 0.00 76 1021.7
20260902143017 76 0 0.0 0.0 0.00 0.00 0.00 75 1021.8
20260902142517 76 0 0.0 0.0 0.00 0.00 0.00 74 1021.8
20260902142017 76 0 0.0 0.0 0.00 0.00 0.00 75 1021.7
20260902141538 76 0 0.0 0.0 0.00 0.00 0.00 75 1021.7
20260902141017 76 0 0.0 0.0 0.00 0.00 0.00 75 1021.8
20260902140017 76 0 0.0 0.0 0.00 0.00 0.00 74 1022.0
20260902135517 76 0 0.0 0.0 0.00 0.00 0.00 74 1021.9
20260902135017 76 0 0.0 0.0 0.00 0.00 0.00 75 1021.9
20260902134517 76 0 0.0 0.0 0.00 0.00 0.00 76 1022.1
20260902134017 76 0 0.0 0.0 0.00 0.00 0.00 76 1022.1
20260902133517 76 0 0.0 0.0 0.00 0.00 0.00 75 1022.1
20260902133017 75 0 0.0 0.0 0.00 0.00 0.00 76 1022.0
20260902132518 75 0 0.0 0.0 0.00 0.00 0.00 76 1021.9
20260902131516 75 0 0.0 0.0 0.00 0.00 0.00 76 1022.0
20260902130517 75 0 0.0 0.0 0.00 0.00 0.00 77 1022.1
20260902130017 76 0 0.0 0.0 0.00 0.00 0.00 77 1022.2
20260902125017 76 0 0.0 0.0 0.00 0.00 0.00 77 1022.2
20260902124016 75 0 0.0 0.0 0.00 0.00 0.00 77 1022.1
20260902123518 75 0 0.0 0.0 0.00 0.00 0.00 77 1022.2
20260902123016 74 0 0.0 0.0 0.00 0.00 0.00 78 1022.2
20260902122517 74 0 0.0 0.0 0.00 0.00 0.00 79 1022.2
20260902122017 74 0 0.0 0.0 0.00 0.00 0.00 79 1022.4
20260902121517 75 0 0.0 0.0 0.00 0.00 0.00 79 1022.6
20260902121017 75 0 0.0 0.0 0.00 0.00 0.00 79 1022.6
20260902120018 75 0 0.0 0.0 0.00 0.00 0.00 79 1022.6
20260902115517 74 0 0.0 0.0 0.00 0.00 0.00 80 1022.6
20260902114517 74 0 0.0 0.0 0.00 0.00 0.00 80 1022.5
20260902114017 73 0 0.0 0.0 0.00 0.00 0.00 80 1022.4
20260902113517 73 0 0.0 0.0 0.00 0.00 0.00 81 1022.6
20260902113017 73 0 0.0 0.0 0.00 0.00 0.00 81 1022.8
20260902112521 73 0 0.0 0.0 0.00 0.00 0.00 82 1022.7
20260902112019 73 0 0.0 0.0 0.00 0.00 0.00 82 1022.7
20260902111517 73 0 0.0 0.0 0.00 0.00 0.00 82 1022.7
20260902110517 72 0 0.0 0.0 0.00 0.00 0.00 83 1022.6
20260902105517 72 0 0.0 0.0 0.00 0.00 0.00 83 1022.6
20260902105016 72 0 0.0 0.0 0.00 0.00 0.00 83 1022.4
20260902104518 72 0 0.0 0.0 0.00 0.00 0.00 83 1022.6
20260902104018 72 0 0.0 0.0 0.00 0.00 0.00 82 1022.7
20260902103517 73 0 0.0 0.0 0.00 0.00 0.00 83 1022.7
20260902103017 73 0 0.0 0.0 0.00 0.00 0.00 83 1022.7
20260902102517 72 0 0.0 0.0 0.00 0.00 0.00 83 1022.8
20260902102017 72 0 0.0 0.0 0.00 0.00 0.00 83 1022.8
20260902101017 72 0 0.0 0.0 0.00 0.00 0.00 83 1022.9
20260902100517 72 0 0.0 0.0 0.00 0.00 0.00 83 1022.8
20260902100017 72 0 0.0 0.0 0.00 0.00 0.00 84 1022.9
20260902095518 71 0 0.0 0.0 0.00 0.00 0.00 85 1022.9
20260902094517 70 0 0.0 0.0 0.00 0.00 0.00 84 1022.7
20260902094018 70 0 0.0 0.0 0.00 0.00 0.00 85 1022.6
20260902093517 70 0 0.0 0.0 0.00 0.00 0.00 85 1022.7
20260902092517 69 0 0.0 0.0 0.00 0.00 0.00 86 1022.6
20260902091518 68 0 0.0 0.0 0.00 0.00 0.00 86 1022.5
20260902091017 68 0 0.0 0.0 0.00 0.00 0.00 86 1022.4
20260902090517 68 0 0.0 0.0 0.00 0.00 0.00 86 1022.4
20260902090017 67 0 0.0 0.0 0.00 0.00 0.00 87 1022.2
20260902085516 67 0 0.0 0.0 0.00 0.00 0.00 88 1022.4
20260902085017 67 0 0.0 0.0 0.00 0.00 0.00 87 1022.2
20260902084518 67 0 0.0 0.0 0.00 0.00 0.00 88 1022.4
20260902084018 67 0 0.0 0.0 0.00 0.00 0.00 88 1022.4
20260902083541 67 0 0.0 0.0 0.00 0.00 0.00 88 1022.4
20260902083043 67 0 0.0 0.0 0.00 0.00 0.00 88 1022.4
20260902082517 67 0 0.0 0.0 0.00 0.00 0.00 88 1022.4
20260902082017 67 0 0.0 0.0 0.00 0.00 0.00 88 1022.2
20260902081517 67 0 0.0 0.0 0.00 0.00 0.00 89 1022.2
20260902081017 66 0 0.0 0.0 0.00 0.00 0.00 89 1022.0
20260902080517 66 0 0.0 0.0 0.00 0.00 0.00 89 1021.9
20260902080017 66 0 0.0 0.0 0.00 0.00 0.00 89 1021.9
20260902075517 65 0 0.0 0.0 0.00 0.00 0.00 89 1022.0
20260902075018 65 0 0.0 0.0 0.00 0.00 0.00 90 1022.0
20260902074517 65 0 0.0 0.0 0.00 0.00 0.00 90 1021.9
20260902074019 64 0 0.0 0.0 0.00 0.00 0.00 90 1021.8
20260902073517 64 0 0.0 0.0 0.00 0.00 0.00 90 1021.8
20260902073017 64 0 0.0 0.0 0.00 0.00 0.00 90 1021.8
20260902072517 63 0 0.0 0.0 0.00 0.00 0.00 90 1021.8